This is the latest recevied weather packets stored in our database for station/object DG8SF-13. If no packets are shown the sender has not sent any weather packets the latest 10 day(s).
| Time | Temp. | Humidity | Pressure | Rain* | Wind** | Luminosity | Snow |
|---|---|---|---|---|---|---|---|
| 1787987365 | 16.67° C | 91% | 1017.5 hPa | 0 mm | - | - | - |
| 1787987054 | 15.56° C | 92% | 1017.6 hPa | 0 mm | - | - | - |
| 1787986741 | 15° C | 94% | 1017.6 hPa | 0 mm | - | - | - |
| 1787986420 | 14.44° C | 95% | 1017.6 hPa | 0 mm | - | - | - |
| 1787986070 | 14.44° C | 95% | 1017.7 hPa | 0 mm | - | - | - |
| 1787985758 | 14.44° C | 95% | 1017.7 hPa | 0 mm | - | - | - |
| 1787985434 | 14.44° C | 96% | 1017.6 hPa | 0 mm | - | - | - |
| 1787985110 | 14.44° C | 96% | 1017.6 hPa | 0 mm | - | - | - |
| 1787984797 | 14.44° C | 97% | 1017.6 hPa | 0 mm | - | - | - |
| 1787984488 | 13.89° C | 97% | 1017.7 hPa | 0 mm | - | - | - |
| 1787984174 | 13.89° C | 97% | 1017.7 hPa | 0 mm | - | - | - |
| 1787983864 | 13.89° C | 97% | 1017.6 hPa | 0 mm | - | - | - |
| 1787983549 | 13.89° C | 98% | 1017.7 hPa | 0 mm | - | - | - |
| 1787983237 | 13.89° C | 98% | 1017.7 hPa | 0 mm | - | - | - |
| 1787982926 | 13.89° C | 98% | 1017.6 hPa | 0 mm | - | - | - |
| 1787982604 | 13.33° C | 98% | 1017.5 hPa | 0 mm | - | - | - |
| 1787982290 | 13.33° C | 98% | 1017.3 hPa | 0 mm | - | - | - |
| 1787981967 | 13.33° C | 98% | 1017.3 hPa | 0 mm | - | - | - |
| 1787981654 | 13.33° C | 98% | 1017.3 hPa | 0 mm | - | - | - |
| 1787981343 | 13.33° C | 98% | 1017.3 hPa | 0 mm | - | - | - |
| 1787981029 | 13.33° C | 98% | 1017.2 hPa | 0 mm | - | - | - |
| 1787980718 | 12.78° C | 98% | 1017.4 hPa | 0 mm | - | - | - |
| 1787980405 | 12.78° C | 98% | 1017.4 hPa | 0 mm | - | - | - |
| 1787980071 | 12.78° C | 98% | 1017.4 hPa | 0 mm | - | - | - |
| 1787979758 | 12.22° C | 98% | 1017.3 hPa | 0 mm | - | - | - |
* Rain latest hour (hover to see other rain measurements)
** Current wind speed in m/s (hover to see current wind gust speed)